[[{"header":{"parameterUnit":"m.s-1","parameterCategory":1,"la1":30.2991,"la2":30.254,"lo1":-89.0895,"lo2":-89.0444,"dy":0.0017,"dx":0.0017,"nx":28,"ny":28,"refTime":"2025-04-15T03:00:00:Z","depth":0,"parameterNumber":2,"parameterNumberName":"U-component_of_WINDS"},"data":[0,0,0,0,0,0,0,0,0,0,0,0,0,0,0,0,0,0,0,0,0,0,0,0,0,0,0,0,0,0,0,0,0,0,0,0,0,0,0,0,0,0,0,0,0,0,0,0,0,0,0,0,0,0,0,0,0,0,-1.4583,-1.4585,0,-1.4701,-1.4702,-1.4703,-1.4656,-1.4654,-1.4651,-1.4648,-1.4773,-1.4779,-1.4785,0,0,0,0,0,0,0,0,0,0,0,0,0,-1.4324,-1.4329,-1.4583,-1.4585,-1.4586,-1.47,-1.4702,-1.4704,-1.4657,-1.4654,-1.465,-1.4647,-1.4771,-1.4778,-1.4785,0,0,0,0,0,0,0,0,0,0,0,0,0,-1.4438,-1.433,-1.4583,-1.4577,-1.4577,-1.47,-1.4702,-1.4704,-1.4658,-1.4653,-1.4649,-1.4645,-1.4769,-1.4778,-1.4786,-1.4924,0,0,-1.4813,-1.4817,0,0,0,0,0,0,0,0,-1.4432,-1.4448,-1.4576,-1.4577,-1.4578,-1.4659,-1.4656,-1.4778,-1.4659,-1.4627,-1.4648,-1.4643,-1.4739,-1.475,-1.4781,-1.493,-1.4935,-1.4814,-1.482,-1.4823,-1.4826,0,0,0,0,0,0,0,-1.4424,-1.4443,-1.463,-1.4578,-1.4579,-1.4569,-1.4581,-1.4679,-1.4705,-1.463,-1.4627,-1.4641,-1.4739,-1.4773,-1.4784,-1.4937,-1.4814,-1.4822,-1.4827,-1.4831,-1.5206,-1.5211,0,0,0,0,0,0,-1.4415,-1.4436,-1.4626,-1.4633,-1.4493,-1.4577,-1.459,-1.4638,-1.4704,-1.471,-1.4644,-1.4638,-1.476,-1.4774,-1.4788,-1.4956,-1.4823,-1.4832,-1.4837,-1.5202,-1.5207,-1.5212,0,0,0,0,0,0,-1.441,-1.4432,-1.4621,-1.4534,-1.4557,-1.4586,-1.464,-1.4642,-1.4676,-1.4715,-1.472,-1.4674,-1.4757,-1.4776,-1.4891,-1.4959,-1.4836,-1.4844,-1.5196,-1.5204,-1.521,-1.5291,0,0,0,0,0,0,-1.4402,-1.4431,-1.4483,-1.4535,-1.4562,-1.4721,-1.4644,-1.4648,-1.4691,-1.4684,-1.4744,-1.475,-1.4755,-1.4878,-1.49,-1.4969,-1.4851,-1.519,-1.52,-1.5208,-1.5282,-1.53,-1.5314,0,0,0,0,0,-1.4393,-1.4501,-1.4485,-1.4509,-1.4627,-1.4725,-1.474,-1.4743,-1.4697,-1.475,-1.4775,-1.4748,-1.4947,-1.489,-1.4914,-1.4988,-1.5186,-1.5197,-1.5207,-1.5275,-1.5296,-1.5314,0,0,0,0,0,0,-1.4458,-1.4508,-1.4491,-1.4619,-1.4668,-1.4717,-1.4784,-1.4765,-1.4829,-1.4821,-1.4822,-1.4836,-1.4955,-1.4982,-1.4917,-1.5125,-1.506,-1.5076,-1.5103,-1.5124,-1.514,-1.5132,-1.4858,0,0,0,0,0,-1.4486,-1.456,-1.46,-1.471,-1.4735,-1.4755,-1.4798,-1.4795,-1.4847,-1.4868,-1.4901,-1.4953,-1.5027,-1.5077,-1.5147,-1.5285,-1.5298,-1.5347,-1.5363,-1.5376,-1.5391,-1.5468,-1.5491,-1.5247,-1.5247,-1.5247,0,0,-1.4547,-1.4584,-1.4631,-1.4724,-1.4761,-1.4839,-1.4773,-1.4858,-1.4917,-1.4881,-1.4992,-1.5018,-1.5076,-1.5204,-1.5261,-1.523,-1.5461,-1.539,-1.54,-1.5408,-1.5481,-1.5504,-1.5524,-1.5254,-1.5253,-1.5252,0,0,-1.4698,-1.4732,-1.4828,-1.4866,-1.4923,-1.4936,-1.4959,-1.5011,-1.5026,-1.5137,-1.5112,-1.5182,-1.531,-1.5353,-1.5391,-1.5558,-1.5537,-1.5581,-1.5667,-1.5742,-1.5761,-1.5778,-1.584,-1.5862,-1.5595,-1.5595,-1.5595,0,-1.4768,-1.4883,-1.488,-1.4967,-1.501,-1.4978,-1.5076,-1.5114,-1.5192,-1.5223,-1.5186,-1.5346,-1.5383,-1.5521,-1.5562,-1.5593,-1.5621,-1.5576,-1.5758,-1.5775,-1.5791,-1.5851,-1.5874,-1.56,-1.56,-1.5599,-1.5599,0,-1.4966,-1.5046,-1.5117,-1.5191,-1.5241,-1.5334,-1.5346,-1.5397,-1.539,-1.5407,-1.5521,-1.5564,-1.5643,-1.5675,-1.5669,-1.5813,-1.5792,-1.5756,-1.5692,-1.582,-1.5876,-1.5898,-1.5608,-1.5606,-1.5604,-1.5603,0,0,-1.5164,-1.5234,-1.526,-1.5294,-1.5354,-1.5417,-1.5508,-1.5584,-1.563,-1.5684,-1.5762,-1.587,-1.5838,-1.5882,-1.588,-1.5945,-1.6078,-1.5902,-1.5904,-1.5936,-1.6241,-1.627,-1.6296,-1.6063,-1.6067,-1.607,-1.6237,0,-1.5322,-1.548,-1.548,-1.5627,-1.5703,-1.5673,-1.5753,-1.58,-1.5818,-1.5885,-1.5905,-1.5983,-1.5933,-1.596,-1.6023,-1.6048,-1.614,-1.6036,-1.6138,-1.6142,-1.6128,-1.6325,-1.6355,-1.651,-1.6259,-1.6262,-1.6265,0,-1.5528,-1.5587,-1.5742,-1.5792,-1.5823,-1.5895,-1.5965,-1.6029,-1.6082,-1.609,-1.6139,-1.6127,-1.6222,-1.6152,-1.6284,-1.6213,-1.6254,-1.6273,-1.6279,-1.6292,-1.6214,-1.6345,-1.656,-1.6584,-1.6299,-1.6296,-1.6294,0,-1.566,-1.5779,-1.5887,-1.5916,-1.5976,-1.6028,-1.6055,-1.6103,-1.6149,-1.6211,-1.6241,-1.6313,-1.6353,-1.641,-1.6419,-1.6366,-1.6552,-1.6482,-1.6564,-1.6564,-1.6607,-1.6605,-1.6835,-1.6629,-1.6629,-1.6628,-1.6628,0,-1.5838,-1.5934,-1.5947,-1.6014,-1.6122,-1.612,-1.6227,-1.6251,-1.6294,-1.6366,-1.6345,-1.6413,-1.6419,-1.6491,-1.6498,-1.6607,-1.6625,-1.6636,-1.6638,-1.664,-1.6639,-1.667,-1.6661,-1.6634,-1.6633,-1.6632,-1.6631,0,-1.6005,-1.6017,-1.6133,-1.618,-1.6194,-1.6271,-1.6312,-1.6377,-1.6392,-1.6484,-1.6505,-1.653,-1.6613,-1.6626,-1.6723,-1.6728,-1.686,-1.6849,-1.6843,-1.6842,-1.6924,-1.6918,-1.7185,-1.7221,-1.6988,-1.699,-1.6992,0,-1.6119,-1.6193,-1.6247,-1.6293,-1.6323,-1.6397,-1.6444,-1.6445,-1.6495,-1.656,-1.6618,-1.6697,-1.6762,-1.6895,-1.6923,-1.6998,-1.699,-1.7079,-1.7002,-1.7002,-1.6995,-1.6992,-1.7001,-1.7095,-1.7097,-1.7099,-1.7101,0,-1.6323,-1.6324,-1.6391,-1.6461,-1.6516,-1.6571,-1.6623,-1.6663,-1.6671,-1.6728,-1.6811,-1.6861,-1.696,-1.7041,-1.7115,-1.7145,-1.7126,-1.7124,-1.7148,-1.7153,-1.7147,-1.7154,-1.6886,-1.7119,-1.7117,-1.7116,-1.7115,-1.7114,-1.6469,-1.6533,-1.6581,-1.6657,-1.6696,-1.6745,-1.6808,-1.683,-1.6899,-1.6979,-1.6976,-1.7068,-1.7119,-1.7217,-1.7252,-1.7325,-1.7297,-1.733,-1.7339,-1.7348,-1.7358,-1.7132,-1.7338,-1.7338,-1.7337,-1.7337,-1.7336,0,-1.6673,-1.6702,-1.6771,-1.6844,-1.6904,-1.6877,-1.6934,-1.6986,-1.7067,-1.7116,-1.7179,-1.7276,-1.7354,-1.7387,-1.7464,-1.7516,-1.751,-1.7537,-1.7535,-1.7543,-1.7377,-1.735,-1.7541,-1.7541,-1.7541,-1.7541,-1.7541,-1.7541,-1.6787,-1.6895,-1.6903,-1.703,-1.7059,-1.7148,-1.7183,-1.7229,-1.7267,-1.7376,-1.744,-1.746,-1.7503,-1.7583,-1.7654,-1.7662,-1.7693,-1.7725,-1.7729,-1.7575,-1.7554,-1.7534,-1.7509,-1.773,-1.7731,-1.7889,-1.789,-1.7891]},{"header":{"parameterUnit":"m.s-1","parameterCategory":1,"la1":30.2991,"la2":30.254,"lo1":-89.0895,"lo2":-89.0444,"dy":0.0017,"dx":0.0017,"nx":28,"ny":28,"refTime":"2025-04-15T03:00:00:Z","depth":0,"parameterNumber":3,"parameterNumberName":"V-component_of_WINDS"},"data":[0,0,0,0,0,0,0,0,0,0,0,0,0,0,0,0,0,0,0,0,0,0,0,0,0,0,0,0,0,0,0,0,0,0,0,0,0,0,0,0,0,0,0,0,0,0,0,0,0,0,0,0,0,0,0,0,0,0,-4.555,-4.555,0,-4.5596,-4.5597,-4.5597,-4.5503,-4.55,-4.5497,-4.5494,-4.554,-4.5544,-4.5548,0,0,0,0,0,0,0,0,0,0,0,0,0,-4.5376,-4.538,-4.5549,-4.555,-4.5551,-4.5596,-4.5597,-4.5597,-4.5504,-4.55,-4.5496,-4.5493,-4.5539,-4.5543,-4.5548,0,0,0,0,0,0,0,0,0,0,0,0,0,-4.544,-4.5381,-4.5549,-4.551,-4.5506,-4.5596,-4.5597,-4.5598,-4.5505,-4.55,-4.5495,-4.5491,-4.5537,-4.5543,-4.5549,-4.5679,0,0,-4.5568,-4.557,0,0,0,0,0,0,0,0,-4.5437,-4.5446,-4.5515,-4.5512,-4.5509,-4.5539,-4.5552,-4.5625,-4.5506,-4.5505,-4.5494,-4.5489,-4.5543,-4.5549,-4.5567,-4.5681,-4.5683,-4.5568,-4.5572,-4.5574,-4.5576,0,0,0,0,0,0,0,-4.5432,-4.5444,-4.5568,-4.5516,-4.5512,-4.5488,-4.5492,-4.5566,-4.5549,-4.5505,-4.5498,-4.5505,-4.5541,-4.5562,-4.5568,-4.5683,-4.5568,-4.5573,-4.5577,-4.5579,-4.5904,-4.5909,0,0,0,0,0,0,-4.5433,-4.5441,-4.5566,-4.5569,-4.5461,-4.5495,-4.55,-4.5534,-4.5548,-4.5546,-4.5509,-4.5501,-4.5553,-4.5561,-4.5569,-4.5721,-4.5574,-4.558,-4.5584,-4.5899,-4.5905,-4.5911,0,0,0,0,0,0,-4.543,-4.5445,-4.5564,-4.5503,-4.5517,-4.5503,-4.5543,-4.5538,-4.5558,-4.5552,-4.5548,-4.5534,-4.555,-4.556,-4.5652,-4.5721,-4.5583,-4.5588,-4.5893,-4.5901,-4.5908,-4.6027,0,0,0,0,0,0,-4.5425,-4.5445,-4.5495,-4.5505,-4.552,-4.5648,-4.5547,-4.5542,-4.5569,-4.5559,-4.5574,-4.5572,-4.5547,-4.5643,-4.5658,-4.5727,-4.5593,-4.5887,-4.5897,-4.5906,-4.6017,-4.6038,-4.6055,0,0,0,0,0,-4.5419,-4.5526,-4.5498,-4.5513,-4.5583,-4.5652,-4.5661,-4.5631,-4.5575,-4.5625,-4.562,-4.5571,-4.5711,-4.5654,-4.5669,-4.5741,-4.5883,-4.5894,-4.5905,-4.6008,-4.6034,-4.6055,0,0,0,0,0,0,-4.5523,-4.5527,-4.5495,-4.5609,-4.5631,-4.5636,-4.5698,-4.5659,-4.5697,-4.5686,-4.5647,-4.5651,-4.575,-4.5754,-4.569,-4.5867,-4.5787,-4.5802,-4.5861,-4.5885,-4.5904,-4.59,-4.5598,0,0,0,0,0,-4.556,-4.5617,-4.5616,-4.5716,-4.5729,-4.5712,-4.5741,-4.5717,-4.5738,-4.5747,-4.5748,-4.577,-4.5819,-4.5852,-4.5896,-4.6017,-4.6018,-4.6074,-4.6093,-4.6109,-4.6123,-4.6186,-4.621,-4.5947,-4.5947,-4.5947,0,0,-4.5635,-4.5644,-4.5682,-4.5738,-4.5752,-4.5811,-4.5721,-4.5787,-4.583,-4.5756,-4.5843,-4.5845,-4.5867,-4.5973,-4.602,-4.598,-4.6195,-4.6124,-4.6136,-4.6141,-4.62,-4.6225,-4.6247,-4.5955,-4.5953,-4.5952,0,0,-4.5802,-4.5815,-4.59,-4.5916,-4.5939,-4.5927,-4.5947,-4.5958,-4.5957,-4.6044,-4.5989,-4.6039,-4.6125,-4.6142,-4.6162,-4.6335,-4.6291,-4.6351,-4.6451,-4.6513,-4.6534,-4.6552,-4.6613,-4.6636,-4.6364,-4.6364,-4.6364,0,-4.5893,-4.5981,-4.5948,-4.6018,-4.6044,-4.598,-4.6064,-4.6081,-4.6118,-4.6136,-4.6091,-4.6196,-4.6206,-4.6315,-4.6358,-4.6376,-4.6397,-4.6349,-4.6534,-4.6552,-4.6568,-4.6626,-4.6649,-4.6371,-4.637,-4.637,-4.6369,0,-4.609,-4.6152,-4.6217,-4.6255,-4.6287,-4.6365,-4.6342,-4.6379,-4.6351,-4.6344,-4.6432,-4.6442,-4.6487,-4.6511,-4.6484,-4.6616,-4.659,-4.6541,-4.6459,-4.6601,-4.6655,-4.6677,-4.6381,-4.6379,-4.6377,-4.6375,0,0,-4.6325,-4.6343,-4.6368,-4.6383,-4.6404,-4.645,-4.6524,-4.6569,-4.6601,-4.6627,-4.6687,-4.6761,-4.6714,-4.6737,-4.6712,-4.6766,-4.6902,-4.6709,-4.6709,-4.6744,-4.7047,-4.7084,-4.7111,-4.6873,-4.6877,-4.688,-4.7045,0,-4.6491,-4.6619,-4.6591,-4.6716,-4.6772,-4.6712,-4.6776,-4.6795,-4.6789,-4.6835,-4.6828,-4.688,-4.6815,-4.6829,-4.688,-4.6875,-4.6962,-4.6862,-4.6927,-4.693,-4.6924,-4.7139,-4.7179,-4.7334,-4.7066,-4.7069,-4.7072,0,-4.6701,-4.6737,-4.6868,-4.6879,-4.6901,-4.6959,-4.6997,-4.7042,-4.7062,-4.7054,-4.7079,-4.7043,-4.7115,-4.7034,-4.7131,-4.7064,-4.7089,-4.709,-4.7095,-4.71,-4.701,-4.7149,-4.7383,-4.7406,-4.7105,-4.7102,-4.71,0,-4.6859,-4.6939,-4.7028,-4.7043,-4.7058,-4.71,-4.7108,-4.7123,-4.7152,-4.7185,-4.7202,-4.7243,-4.7266,-4.7298,-4.7273,-4.7216,-4.7375,-4.7291,-4.7369,-4.737,-4.7405,-4.7403,-4.7646,-4.7422,-4.7422,-4.7421,-4.7421,0,-4.7046,-4.7129,-4.7099,-4.7154,-4.7244,-4.721,-4.73,-4.7301,-4.7315,-4.7367,-4.7317,-4.7368,-4.7332,-4.7379,-4.736,-4.7444,-4.7454,-4.7449,-4.7443,-4.7454,-4.7454,-4.7469,-4.7458,-4.7427,-4.7426,-4.7425,-4.7424,0,-4.7238,-4.7221,-4.7314,-4.732,-4.7324,-4.739,-4.7395,-4.7445,-4.7435,-4.7503,-4.7516,-4.7501,-4.7554,-4.7533,-4.7588,-4.7575,-4.7682,-4.7662,-4.7676,-4.7671,-4.775,-4.7743,-4.8011,-4.8044,-4.7799,-4.7801,-4.7803,0,-4.7359,-4.7421,-4.7434,-4.7466,-4.7478,-4.753,-4.7559,-4.7528,-4.756,-4.7587,-4.7633,-4.7682,-4.7719,-4.7806,-4.7799,-4.7841,-4.7821,-4.7912,-4.7827,-4.7836,-4.7822,-4.7819,-4.7825,-4.793,-4.7932,-4.7935,-4.7937,0,-4.7575,-4.7563,-4.7607,-4.7649,-4.7685,-4.7715,-4.7741,-4.777,-4.774,-4.7778,-4.7832,-4.7861,-4.7918,-4.7966,-4.8003,-4.801,-4.7969,-4.7963,-4.7983,-4.7995,-4.8,-4.7998,-4.7722,-4.7957,-4.7955,-4.7954,-4.7953,-4.7952,-4.7734,-4.7787,-4.7804,-4.7854,-4.7871,-4.7896,-4.7943,-4.794,-4.7984,-4.8029,-4.8007,-4.807,-4.8086,-4.8132,-4.8144,-4.8192,-4.8156,-4.8185,-4.8193,-4.82,-4.8211,-4.7993,-4.8198,-4.8198,-4.8197,-4.8197,-4.8196,0,-4.7948,-4.7956,-4.8002,-4.8041,-4.808,-4.8038,-4.8065,-4.81,-4.8156,-4.8175,-4.8213,-4.8274,-4.8321,-4.8318,-4.836,-4.8399,-4.8381,-4.8411,-4.8408,-4.841,-4.824,-4.8219,-4.8425,-4.8425,-4.8425,-4.8425,-4.8425,-4.8425,-4.8063,-4.8149,-4.814,-4.8233,-4.8239,-4.8301,-4.8319,-4.8342,-4.8357,-4.8428,-4.8467,-4.8465,-4.8475,-4.8518,-4.8558,-4.8556,-4.8574,-4.8612,-4.8602,-4.8444,-4.8422,-4.84,-4.8379,-4.8616,-4.8616,-4.8767,-4.8769,-4.877]}]]